Location: ??
(31.9467°N, 34.8903°E)
Time: 22:47:57
(UTC+00:00)

X-37B - Pass Details

Date: 30 January 2021
Orbit: 383 x 391 km, 45.0° (Epoch: 10 February)

Event Time Altitude Azimuth Distance (km) Brightness Sun altitude
Rises 15:54:39 0° 316° (NW) 2,271 4.9 -9.3°
Reaches altitude 10° 15:57:08 10° 335° (NNW) 1,416 3.6 -9.8°
Maximum altitude 15:59:31 19° 23° (NNE) 996 2.3 -10.3°
Enters shadow 16:00:53 15° 56° (NE) 1,151 2.4 -10.6°
